Observations for Trim Market St
| Time | AQI | Temp °C | Hum % | Pres Pa | CO μg/m³ | H₂S μg/m³ | NO μg/m³ | NO₂ μg/m³ | O₃ μg/m³ | SO₂ μg/m³ | PM1 μg/m³ | PM2.5 μg/m³ | PM10 μg/m³ |
|---|---|---|---|---|---|---|---|---|---|---|---|---|---|
| Tuesday 25 August 2026 | |||||||||||||
| 13:51 | 2 | 28.6 | 35 | 65,937 | 0 | 0 | 0.95 | 20.01 | 96.44 | 0 | 1.43 | 4.7 | 5.17 |
| 13:50 | 2 | 28.7 | 35 | 65,947 | 0 | 0 | 1.03 | 20.31 | 96.77 | 0 | 0.71 | 3.64 | 4 |
| 13:47 | 2 | 28.9 | 35 | 65,968 | 0 | 0 | 0.99 | 20.99 | 116.17 | 0 | 1.43 | 4.18 | 4.59 |
| 13:46 | 2 | 28.9 | 35 | 65,953 | 0 | 0 | 0.93 | 22.09 | 103.23 | 0 | 1.43 | 4.18 | 4.18 |
| 13:45 | 2 | 28.9 | 35 | 65,939 | 0 | 0 | 0.92 | 21.09 | 113.93 | 0 | 2.14 | 4.72 | 5.19 |
| 13:44 | 2 | 28.9 | 35 | 65,947 | 0 | 0 | 0.87 | 20.54 | 106.71 | 0 | 0.71 | 4.18 | 5.85 |
| 13:37 | 2 | 29 | 34 | 65,964 | 0 | 0 | 0.94 | 19.4 | 123.93 | 0 | 0.71 | 4.2 | 4.62 |
| 13:36 | 2 | 29.1 | 34 | 65,979 | 0 | 0 | 0.97 | 21.6 | 111.49 | 0 | 1.43 | 4.21 | 4.63 |
| 13:35 | 2 | 29.2 | 34 | 65,968 | 0 | 0 | 0.97 | 23.09 | 108.24 | 0 | 0 | 3.68 | 4.05 |
| 13:34 | 2 | 29.3 | 34 | 65,979 | 0 | 0 | 0.96 | 18.57 | 100.83 | 0 | 1.43 | 4.76 | 5.24 |
| 13:25 | 2 | 29.7 | 33 | 66,027 | 0 | 0 | 1.01 | 20.69 | 122.81 | 0 | 0.71 | 4.25 | 4.68 |
| 13:24 | 2 | 29.7 | 33 | 66,027 | 0 | 0 | 1.03 | 17.19 | 91.21 | 0 | 0.71 | 4.26 | 4.99 |
| 13:23 | 2 | 29.8 | 33 | 65,995 | 0 | 0 | 0.98 | 20.69 | 108.48 | 0 | 0.71 | 4.25 | 4.68 |
| 13:22 | 2 | 29.9 | 33 | 66,013 | 0 | 0 | 0.99 | 16.36 | 91.82 | 0 | 0.71 | 4.79 | 5.27 |
| 13:21 | 2 | 29.9 | 33 | 66,005 | 0 | 0 | 0.93 | 21.05 | 109.55 | 0 | 0.71 | 3.71 | 4.08 |
| 13:20 | 2 | 29.9 | 33 | 66,023 | 0 | 0 | 0.92 | 20.22 | 98.75 | 0 | 0.71 | 4.25 | 4.99 |
| 13:19 | 2 | 30 | 33 | 66,019 | 0 | 0 | 0.89 | 22.07 | 108.16 | 0 | 0.71 | 4.78 | 5.26 |
| 13:18 | 2 | 30 | 33 | 66,011 | 0 | 0 | 0.95 | 20.63 | 117.51 | 0 | 0.71 | 4.25 | 4.67 |
| 13:17 | 2 | 30.1 | 33 | 66,029 | 0 | 0 | 0.9 | 21.65 | 119.73 | 0 | 1.43 | 5.33 | 5.86 |
| 13:16 | 2 | 30.1 | 33 | 66,052 | 0 | 0 | 0.96 | 23.18 | 118.08 | 0 | 1.43 | 4.25 | 4.68 |